This demonstration page uses our WeatherBlox Daily Observations layout. Learn more.

Left ArrowRight Arrow

Hourly Observations for July 23, 2015

Temp ( °F °C ) Dew Point ( °F °C ) Humidity (%) Winds ( mph kmh ) Pressure ( in mb ) Visibility ( mi km ) Precip ( " mm )
12:51 am 00:51 Mostly Clear 82 27.8 56 13.3 41 41 N N/A 29.78 1008 10 16.0934 N/A
1:51 am 01:51 Clear 79 26.1 57 13.9 47 47 NW 5 7 29.79 1009 10 16.0934 N/A
2:51 am 02:51 Clear 79 26.1 56 13.3 45 45 NW 5 7 29.81 1010 10 16.0934 N/A
3:51 am 03:51 Clear 81 27.2 57 13.9 44 44 NW 10 17 29.82 1010 10 16.0934 N/A
4:51 am 04:51 Partly Cloudy 81 27.2 56 13.3 42 42 NW 10 17 29.83 1010 10 16.0934 N/A
5:51 am 05:51 Sunny 80 26.7 57 13.9 45 45 NW 9 15 29.85 1011 10 16.0934 N/A
6:51 am 06:51 Mostly Cloudy 81 27.2 57 13.9 44 44 WNW 12 19 29.87 1011 10 16.0934 N/A
7:51 am 07:51 Cloudy 82 27.8 54 12.2 38 38 WNW 14 22 29.88 1012 10 16.0934 N/A
8:51 am 08:51 Sunny 85 29.4 53 11.7 33 33 WNW 18 30 29.88 1012 10 16.0934 N/A
9:51 am 09:51 Sunny 89 31.7 52 11.1 28 28 WNW 20 31 29.88 1012 10 16.0934 N/A
10:51 am 10:51 Sunny 91 32.8 49 9.4 24 24 WNW 21 33 29.88 1012 10 16.0934 N/A
11:51 am 11:51 Sunny 91 32.8 48 8.9 23 23 W 17 28 29.88 1012 10 16.0934 N/A
12:51 pm 12:51 Mostly Cloudy 89 31.7 48 8.9 24 24 WNW 18 30 29.86 1011 10 16.0934 N/A
1:51 pm 13:51 Mostly Sunny 91 32.8 49 9.4 24 24 WNW 20 31 29.84 1011 10 16.0934 N/A
2:51 pm 14:51 Sunny 90 32.2 50 10 25 25 WNW 22 35 29.83 1010 10 16.0934 N/A
3:51 pm 15:51 Mostly Sunny 82 27.8 47 8.3 29 29 WNW 18 30 29.88 1012 10 16.0934 N/A
4:51 pm 16:51 Sunny 91 32.8 50 10 25 25 NW 21 33 29.8 1009 10 16.0934 N/A
5:51 pm 17:51 Sunny 89 31.7 50 10 26 26 NW 21 33 29.81 1009 10 16.0934 N/A
6:51 pm 18:51 Partly Cloudy 89 31.7 52 11.1 28 28 NW 16 26 29.83 1010 10 16.0934 N/A
7:51 pm 19:51 Mostly Clear 87 30.6 50 10 28 28 WNW 16 26 29.85 1011 10 16.0934 N/A
8:51 pm 20:51 Mostly Clear 84 28.9 56 13.3 38 38 WNW 17 28 29.88 1012 10 16.0934 N/A
9:51 pm 21:51 Mostly Clear 78 25.7 70 20.9 75 75 NW 13 20 29.94 1014 10 16.0934 N/A
10:51 pm 22:51 Clear 82 27.8 56 13.3 41 41 NW 12 19 29.87 1012 10 16.0934 N/A
11:51 pm 23:51 Clear 79 26.1 57 13.9 47 47 NW 9 15 29.88 1012 10 16.0934 N/A

Powered by AerisWeather